When you browse on this site, cookies collect data to enhance your experience and personalize the content and advertising you see.
Visit our Privacy Policy to learn more. By continuing to use the site, you agree to this use of cookies and data.
  • Em Portugal
  • Lista de países
  • Para 7 dias
  • Temperatura da água
  • Mapas de satélite
  • Mapa do tempo
  • Widgets de tempo
  • user-avatar
    Iniciar Sessão

    Previsão horária em Maloe Ermakovo

    Hoje, 24 Abril, Quarta-feira

    Tempo Temperatura Precipitação Vento Pressão Humidade
    00:00 +6°C° 0 mm 2 m/s 757 mmHg 74%
    01:00 +6°C° 0 mm 1 m/s 757 mmHg 75%
    02:00 +6°C° 0 mm 1 m/s 757 mmHg 77%
    03:00 +6°C° 0 mm 1 m/s 757 mmHg 78%
    04:00 +6°C° 0 mm 1 m/s 757 mmHg 77%
    05:00 +6°C° 0 mm 1 m/s 757 mmHg 75%
    06:00 +7°C° 0 mm 1 m/s 757 mmHg 73%
    07:00 +8°C° 0 mm 2 m/s 757 mmHg 66%
    08:00 +9°C° 0 mm 2 m/s 757 mmHg 58%
    09:00 +11°C° 0 mm 3 m/s 757 mmHg 50%
    10:00 +13°C° 0 mm 3 m/s 756 mmHg 47%
    11:00 +14°C° 0 mm 4 m/s 756 mmHg 43%
    12:00 +15°C° 0 mm 4 m/s 755 mmHg 40%
    13:00 +17°C° 0 mm 4 m/s 755 mmHg 41%
    14:00 +17°C° 0 mm 5 m/s 755 mmHg 41%
    15:00 +17°C° 0 mm 5 m/s 754 mmHg 42%
    16:00 +18°C° 0 mm 4 m/s 754 mmHg 46%
    17:00 +17°C° 0 mm 4 m/s 754 mmHg 49%
    18:00 +17°C° 0 mm 3 m/s 754 mmHg 53%
    19:00 +16°C° 0 mm 3 m/s 754 mmHg 58%
    20:00 +13°C° 0 mm 3 m/s 754 mmHg 62%
    21:00 +12°C° 0 mm 3 m/s 754 mmHg 67%
    22:00 +12°C° 0 mm 2 m/s 755 mmHg 72%
    23:00 +12°C° 0 mm 2 m/s 755 mmHg 76%

    Amanhã, 25 Abril, Quinta-feira

    Tempo Temperatura Precipitação Vento Pressão Humidade
    00:00 +10°C° 0 mm 2 m/s 755 mmHg 81%
    01:00 +11°C° 0 mm 1 m/s 755 mmHg 82%
    02:00 +10°C° 0 mm 1 m/s 755 mmHg 84%
    03:00 +9°C° 0 mm 0 m/s 755 mmHg 86%
    04:00 +10°C° 0 mm 1 m/s 755 mmHg 84%
    05:00 +10°C° 0 mm 2 m/s 755 mmHg 82%
    06:00 +10°C° 0 mm 2 m/s 755 mmHg 80%
    07:00 +12°C° 0 mm 3 m/s 755 mmHg 72%
    08:00 +14°C° 0 mm 4 m/s 755 mmHg 65%
    09:00 +17°C° 0 mm 4 m/s 755 mmHg 58%
    10:00 +17°C° 0.1 mm 5 m/s 755 mmHg 53%
    11:00 +19°C° 0.1 mm 5 m/s 755 mmHg 47%
    12:00 +20°C° 0.1 mm 6 m/s 754 mmHg 42%
    13:00 +19°C° 0.1 mm 6 m/s 754 mmHg 44%
    14:00 +19°C° 0.1 mm 6 m/s 754 mmHg 45%
    15:00 +19°C° 0.1 mm 6 m/s 754 mmHg 47%
    16:00 +17°C° 0.1 mm 5 m/s 754 mmHg 50%
    17:00 +16°C° 0.1 mm 5 m/s 755 mmHg 53%
    18:00 +15°C° 0.1 mm 4 m/s 755 mmHg 56%
    19:00 +13°C° 0 mm 4 m/s 755 mmHg 58%
    20:00 +12°C° 0 mm 3 m/s 755 mmHg 61%
    21:00 +10°C° 0 mm 3 m/s 756 mmHg 63%
    22:00 +10°C° 0 mm 3 m/s 756 mmHg 65%
    23:00 +9°C° 0 mm 2 m/s 756 mmHg 67%

    Depois de amanhã, 26 Abril, Sexta-feira

    Tempo Temperatura Precipitação Vento Pressão Humidade
    00:00 +8°C° 0 mm 2 m/s 756 mmHg 69%
    01:00 +7°C° 0 mm 2 m/s 757 mmHg 70%
    02:00 +7°C° 0 mm 2 m/s 757 mmHg 72%
    03:00 +6°C° 0 mm 2 m/s 757 mmHg 73%
    04:00 +6°C° 0 mm 2 m/s 757 mmHg 71%
    05:00 +6°C° 0 mm 2 m/s 757 mmHg 68%
    06:00 +7°C° 0 mm 2 m/s 757 mmHg 66%
    07:00 +8°C° 0 mm 2 m/s 758 mmHg 60%
    08:00 +9°C° 0 mm 3 m/s 758 mmHg 53%
    09:00 +11°C° 0 mm 3 m/s 758 mmHg 46%
    10:00 +11°C° 0 mm 3 m/s 758 mmHg 47%
    11:00 +11°C° 0 mm 3 m/s 758 mmHg 47%
    12:00 +11°C° 0 mm 3 m/s 758 mmHg 48%
    13:00 +11°C° 0 mm 3 m/s 758 mmHg 46%
    14:00 +12°C° 0 mm 3 m/s 758 mmHg 44%
    15:00 +12°C° 0 mm 3 m/s 758 mmHg 43%
    16:00 +13°C° 0 mm 2 m/s 758 mmHg 44%
    17:00 +12°C° 0 mm 2 m/s 758 mmHg 45%
    18:00 +12°C° 0 mm 2 m/s 757 mmHg 46%
    19:00 +11°C° 0 mm 1 m/s 758 mmHg 49%
    20:00 +10°C° 0 mm 1 m/s 758 mmHg 51%
    21:00 +8°C° 0 mm 1 m/s 758 mmHg 53%
    22:00 +8°C° 0 mm 1 m/s 758 mmHg 54%
    23:00 +7°C° 0 mm 0 m/s 758 mmHg 55%

    27 Abril, Sábado

    Tempo Temperatura Precipitação Vento Pressão Humidade
    00:00 +6°C° 0 mm 0 m/s 758 mmHg 56%
    01:00 +7°C° 0 mm 1 m/s 758 mmHg 57%
    02:00 +6°C° 0 mm 1 m/s 758 mmHg 59%
    03:00 +5°C° 0 mm 2 m/s 757 mmHg 60%
    04:00 +6°C° 0 mm 2 m/s 757 mmHg 61%
    05:00 +6°C° 0 mm 2 m/s 757 mmHg 62%
    06:00 +7°C° 0 mm 2 m/s 757 mmHg 63%
    07:00 +9°C° 0 mm 3 m/s 756 mmHg 57%
    08:00 +11°C° 0 mm 4 m/s 756 mmHg 51%
    09:00 +13°C° 0 mm 5 m/s 755 mmHg 46%
    10:00 +15°C° 0 mm 5 m/s 755 mmHg 45%
    11:00 +16°C° 0 mm 5 m/s 754 mmHg 44%
    12:00 +17°C° 0 mm 5 m/s 753 mmHg 43%
    13:00 +17°C° 0.1 mm 5 m/s 753 mmHg 46%
    14:00 +17°C° 0.1 mm 5 m/s 752 mmHg 49%
    15:00 +16°C° 0.1 mm 5 m/s 751 mmHg 53%
    16:00 +15°C° 1.2 mm 4 m/s 750 mmHg 62%
    17:00 +14°C° 1.2 mm 4 m/s 750 mmHg 71%
    18:00 +13°C° 1.2 mm 4 m/s 749 mmHg 81%
    19:00 +13°C° 0.4 mm 4 m/s 748 mmHg 82%
    20:00 +13°C° 0.4 mm 4 m/s 748 mmHg 83%
    21:00 +13°C° 0.4 mm 5 m/s 747 mmHg 84%
    22:00 +12°C° 0.1 mm 5 m/s 747 mmHg 84%
    23:00 +12°C° 0.1 mm 4 m/s 746 mmHg 83%

    28 Abril, Domingo

    Tempo Temperatura Precipitação Vento Pressão Humidade
    00:00 +11°C° 0.1 mm 4 m/s 746 mmHg 82%
    01:00 +11°C° 0.1 mm 4 m/s 746 mmHg 84%
    02:00 +11°C° 0.1 mm 4 m/s 746 mmHg 85%
    03:00 +10°C° 0.1 mm 4 m/s 745 mmHg 87%
    04:00 +11°C° 0.1 mm 4 m/s 745 mmHg 86%
    05:00 +10°C° 0.1 mm 5 m/s 745 mmHg 85%
    06:00 +10°C° 0.1 mm 5 m/s 745 mmHg 84%
    07:00 +10°C° 1.3 mm 5 m/s 745 mmHg 86%
    08:00 +11°C° 1.3 mm 4 m/s 745 mmHg 88%
    09:00 +11°C° 1.3 mm 4 m/s 745 mmHg 89%
    10:00 +11°C° 0.1 mm 4 m/s 746 mmHg 83%
    11:00 +10°C° 0.1 mm 5 m/s 746 mmHg 78%
    12:00 +10°C° 0.1 mm 5 m/s 747 mmHg 72%
    13:00 +10°C° 0 mm 5 m/s 747 mmHg 65%
    14:00 +10°C° 0 mm 6 m/s 747 mmHg 58%
    15:00 +10°C° 0 mm 6 m/s 748 mmHg 51%
    16:00 +9°C° 0 mm 6 m/s 748 mmHg 51%
    17:00 +8°C° 0 mm 5 m/s 749 mmHg 51%
    18:00 +7°C° 0 mm 5 m/s 749 mmHg 52%
    19:00 +6°C° 0 mm 5 m/s 750 mmHg 53%
    20:00 +5°C° 0 mm 5 m/s 751 mmHg 55%
    21:00 +3°C° 0 mm 5 m/s 752 mmHg 56%
    22:00 +2°C° 0 mm 5 m/s 752 mmHg 56%
    23:00 +1°C° 0 mm 5 m/s 752 mmHg 56%

    29 Abril, Segunda-feira

    Tempo Temperatura Precipitação Vento Pressão Humidade
    00:00 0°C° 0 mm 4 m/s 753 mmHg 57%
    01:00 0°C° 0 mm 4 m/s 753 mmHg 58%
    02:00 -1°C° 0 mm 4 m/s 754 mmHg 59%
    03:00 -2°C° 0 mm 4 m/s 754 mmHg 60%
    04:00 -2°C° 0 mm 4 m/s 754 mmHg 60%
    05:00 -1°C° 0 mm 5 m/s 755 mmHg 59%
    06:00 -1°C° 0 mm 5 m/s 755 mmHg 59%
    07:00 0°C° 0 mm 5 m/s 755 mmHg 56%
    08:00 +1°C° 0 mm 5 m/s 755 mmHg 52%
    09:00 +2°C° 0 mm 5 m/s 756 mmHg 48%
    10:00 +2°C° 0 mm 5 m/s 756 mmHg 46%
    11:00 +3°C° 0 mm 5 m/s 756 mmHg 44%
    12:00 +5°C° 0 mm 5 m/s 756 mmHg 43%
    13:00 +5°C° 0 mm 5 m/s 756 mmHg 41%
    14:00 +5°C° 0 mm 5 m/s 755 mmHg 39%
    15:00 +6°C° 0 mm 5 m/s 755 mmHg 37%
    16:00 +5°C° 0 mm 4 m/s 755 mmHg 38%
    17:00 +5°C° 0 mm 4 m/s 755 mmHg 39%
    18:00 +4°C° 0 mm 4 m/s 755 mmHg 40%
    19:00 +3°C° 0 mm 3 m/s 755 mmHg 44%
    20:00 +2°C° 0 mm 3 m/s 756 mmHg 48%
    21:00 +2°C° 0 mm 2 m/s 756 mmHg 51%
    22:00 +1°C° 0 mm 2 m/s 756 mmHg 52%
    23:00 +1°C° 0 mm 2 m/s 756 mmHg 53%
    Mostrar mais